Flag for Poland Weather past 2 weeks in Kielce, Poland

Now
76 °F

Scattered clouds.


Feels Like: 78 °F
Forecast: 59 / 65 °F
Wind: 5 mph from Northeast

Location: Kielce

Current Time: Jul 23, 2014 at 2:01:28 AM

Latest Report: Jul 22, 2014 at 6:00 PM


Visibility: 22 mi

Pressure: 29.90 "Hg

Humidity: 52%

Dew point: 57 °F

Location of KielceLocation

Historic Weather in Kielce — Graph

°F

Kielce temperature yesterday

Maximum temperature yesterday: 78 °F (at 2:00 PM)
Minimum temperature yesterday: 60 °F (at 5:00 AM)
Average temperature yesterday: 71 °F

Past Weeks' High & Low Weather Summary

 TemperatureHumidityPressure
High87 °F (Jul 8, 4:00 PM)100% (Jul 12, 11:00 PM)30.16 "Hg (Jul 12, 11:00 PM)
Low50 °F (Jul 13, 5:00 AM)34% (Jul 20, 3:00 PM)29.61 "Hg (Jul 9, 3:00 PM)
Average68 °F78%29.92 "Hg
* Reported Jul 7 8:00 PM — Jul 22 6:00 PM, Kielce, Weather by CustomWeather, © 2014

Note: Actual official high and low records may vary slightly from our data, if they occured in-between our weather recording intervals... More about our weather records

Advertising

Kielce weather history for previous 24 hours

 ConditionsComfort  
Time TempWeatherWind HumidityBarometerVisibility
6:00 PM
Jul 22
76 °FScattered clouds.5 mph52%29.90 "Hg22 mi
5:00 PM76 °FPartly sunny.6 mph51%29.90 "Hg28 mi
4:00 PM75 °FScattered clouds.5 mph51%29.90 "Hg25 mi
3:00 PM78 °FPartly sunny.6 mph51%29.91 "Hg17 mi
2:00 PM78 °FPartly sunny.5 mph48%29.91 "Hg22 mi
1:00 PM76 °FPartly sunny.5 mph51%29.92 "Hg22 mi
12:00 PM77 °FScattered clouds.5 mph52%29.91 "Hg16 mi
11:00 AM76 °FPassing clouds.6 mph55%29.91 "Hg19 mi
10:00 AM74 °FPassing clouds.5 mph55%29.90 "Hg18 mi
9:00 AM72 °FPassing clouds.3 mph61%29.90 "Hg17 mi
8:00 AM71 °FScattered clouds.2 mph63%29.89 "Hg19 mi
7:00 AM68 °FOvercast.2 mph66%29.89 "Hg22 mi
6:00 AM61 °FPartly sunny.3 mph81%29.90 "Hg22 mi
5:00 AM60 °FOvercast.1 mph82%29.89 "Hg19 mi
3:00 AM64 °FPassing clouds.3 mph71%29.87 "Hg28 mi
2:00 AM64 °FOvercast.2 mph73%29.88 "Hg28 mi
Weather by CustomWeather, © 2014

See weather overviewHow to use our weather pages